Home   Weather   Cyprus   Paphos   Past weeks
Flag for Cyprus

Past Weather in Paphos, Cyprus — Yesterday and Last 2 Weeks

Currently: 81 °F. Clear. (Weather station: Paphos Airport, Cyprus). See more current weather

Past Weather in Paphos — Graph

°F

Paphos Temperature Yesterday

Maximum temperature yesterday: 86 °F (at 1:30 pm)
Minimum temperature yesterday: 73 °F (at 4:00 am)
Average temperature yesterday: 79 °F

High & Low Weather Summary for the Past Weeks

 TemperatureHumidityPressure
High100 °F (Jun 7, 3:00 pm)100% (Jun 9, 1:30 am)29.89 "Hg (Jun 9, 1:30 am)
Low68 °F (Jun 12, 4:00 am)16% (Jun 7, 3:00 pm)29.59 "Hg (Jun 9, 12:30 am)
Average82 °F67%29.75 "Hg
* Reported Jun 3 9:00 pm — Jun 18 9:00 pm, Paphos. Weather by CustomWeather, © 2024

Note: Actual official high and low records may vary slightly from our data, if they occured in-between our weather recording intervals... More about our weather records

Paphos Weather History for the Previous 24 Hours

Scroll right to see more
 ConditionsComfort  
Time TempWeatherWind HumidityBarometerVisibility
9:00 pm
Tue, Jun 18
81 °FClear.10 mph84%29.77 "HgN/A
8:30 pm81 °FClear.13 mph89%29.77 "HgN/A
8:00 pm81 °FClear.14 mph84%29.77 "HgN/A
7:30 pm81 °FClear.14 mph84%29.77 "HgN/A
7:00 pm82 °FPassing clouds.15 mph79%29.77 "HgN/A
6:30 pm82 °FPassing clouds.16 mph79%29.77 "HgN/A
6:00 pm84 °FPassing clouds.17 mph74%29.77 "HgN/A
5:30 pm84 °FPassing clouds.15 mph74%29.77 "HgN/A
5:00 pm86 °FPassing clouds.14 mph70%29.80 "HgN/A
4:30 pm86 °FPassing clouds.13 mph66%29.80 "HgN/A
3:30 pm86 °FPassing clouds.12 mph66%29.80 "HgN/A
2:00 pm86 °FPassing clouds.9 mph66%29.83 "HgN/A
1:30 pm86 °FPassing clouds.8 mph66%29.83 "HgN/A
12:30 pm86 °FPassing clouds.8 mph66%29.83 "HgN/A
11:30 am84 °FPassing clouds.8 mph74%29.83 "HgN/A
10:30 am84 °FPassing clouds.7 mph74%29.83 "HgN/A
9:30 am82 °FPassing clouds.3 mph74%29.83 "HgN/A
8:30 am79 °FSunny.5 mph74%29.83 "Hg10 mi
8:00 am81 °FSunny.5 mph66%29.80 "Hg10 mi
7:30 am81 °FSunny.2 mph66%29.80 "Hg10 mi
7:00 am79 °FClear.No wind74%29.80 "HgN/A
6:30 am75 °FClear.2 mph78%29.80 "HgN/A
6:00 am75 °FClear.3 mph83%29.77 "HgN/A
5:30 am75 °FClear.3 mph83%29.80 "HgN/A
5:00 am75 °FClear.3 mph83%29.80 "HgN/A
4:30 am75 °FClear.2 mph83%29.80 "HgN/A
4:00 am77 °FClear.No wind79%29.80 "HgN/A
3:00 am75 °FClear.3 mph83%29.80 "HgN/A
2:30 am77 °FClear.3 mph83%29.80 "HgN/A
2:00 am77 °FClear.2 mph79%29.80 "HgN/A
1:30 am77 °FClear.2 mph79%29.80 "HgN/A
1:00 am77 °FClear.No wind83%29.80 "HgN/A
12:30 am79 °FClear.No wind79%29.80 "HgN/A
12:00 am79 °FClear.3 mph79%29.80 "HgN/A
11:30 pm
Mon, Jun 17
79 °FClear.5 mph79%29.80 "HgN/A
11:00 pm77 °FClear.5 mph83%29.80 "HgN/A
10:30 pm79 °FClear.6 mph84%29.80 "HgN/A
10:00 pm79 °FClear.7 mph84%29.80 "HgN/A
Weather by CustomWeather, © 2024

See weather overview